Change the Weather History Date:

Saturday, October 27, 2012

  Actual Average Record
Temperature  
Mean Temperature 53 °F -  
Max Temperature 58 °F 54 °F 66 °F (2006)
Min Temperature 49 °F 37 °F 32 °F (1999)
Degree Days  
Heating Degree Days 12    
Growing Degree Days 3 (Base 50)    
Moisture  
Dew Point 51 °F    
Average Humidity 95    
Maximum Humidity 100    
Minimum Humidity 76    
Precipitation  
Precipitation 0.74 in - - ()
Sea Level Pressure  
Sea Level Pressure 29.89 in    
Wind  
Wind Speed 8 mph (SE)    
Max Wind Speed 17 mph    
Max Gust Speed 25 mph    
Visibility 6 miles    
Events Rain    
Averages and records for this station are not official NWS values.
T = Trace of Precipitation, MM = Missing Value Source: NWS Daily Summary

Daily Weather History Graph

Daily Weather History Graph

Search for Another Location

Airport or City:

Trip Planner

Search our weather history database for the weather conditions in past years. The results will help you decide how hot, cold, wet, or windy it might be!

Date:

Astronomy

Oct. 27, 2012 Rise Set
Actual Time 7:46 AM PDT 6:00 PM PDT
Civil Twilight 7:15 AM PDT 6:32 PM PDT
Nautical Twilight 6:39 AM PDT 7:08 PM PDT
Astronomical Twilight 6:03 AM PDT 7:43 PM PDT
Moon 4:53 PM PDT (10/27) 5:41 AM PDT (10/27)
Length of Visible Light 11h 17m
Length of Day
10h 14m
Waxing Gibbous, 96% of the Moon is Illuminated
Oct 27
Waxing Gibbous
Oct 29
Full
Nov 6
Last Quarter
Nov 13
New
Nov 20
First Quarter

Hourly Weather History & Observations

Time (PDT) Temp. Dew Point Humidity Pressure Visibility Wind Dir Wind Speed Gust Speed Precip Events Conditions
12:58 AM 52.9 °F 45.9 °F 77% 30.06 in 10.0 mi South 13.8 mph - N/A   Mostly Cloudy
1:58 AM 52.9 °F 45.7 °F 77% 30.06 in 10.0 mi South 15.0 mph - N/A   Overcast
2:58 AM 52.9 °F 45.7 °F 77% 30.06 in 10.0 mi SSE 10.4 mph - N/A   Overcast
3:58 AM 52.7 °F 45.3 °F 76% 30.06 in 10.0 mi South 15.0 mph 21.9 mph N/A   Overcast
4:58 AM 52.5 °F 45.1 °F 76% 30.08 in 10.0 mi South 11.5 mph 19.6 mph N/A   Overcast
5:58 AM 52.2 °F 45.1 °F 77% 30.08 in 10.0 mi SSE 9.2 mph - N/A   Mostly Cloudy
6:10 AM 51.8 °F 46.4 °F 82% 30.05 in 10.0 mi SE 9.2 mph - N/A   Light Drizzle
6:23 AM 50.0 °F 46.4 °F 87% 30.05 in 5.0 mi SE 10.4 mph - N/A   Drizzle
6:58 AM 49.8 °F 47.1 °F 90% 30.06 in 7.0 mi SSE 3.5 mph - 0.09 in   Light Drizzle
6:59 AM 50.0 °F 46.4 °F 87% 30.04 in 6.0 mi SE 3.5 mph - N/A   Light Drizzle
7:58 AM 49.1 °F 47.5 °F 94% 30.04 in 6.0 mi SE 6.9 mph - 0.09 in   Light Drizzle
8:38 AM 50.0 °F 48.2 °F 94% 30.00 in 10.0 mi ESE 9.2 mph - N/A   Overcast
8:58 AM 49.3 °F 47.5 °F 94% 30.01 in 10.0 mi ESE 8.1 mph - 0.04 in   Overcast
9:18 AM 50.0 °F 48.2 °F 94% 30.00 in 10.0 mi SE 4.6 mph - N/A   Light Drizzle
9:30 AM 50.0 °F 48.2 °F 94% 30.00 in 10.0 mi SE 3.5 mph - N/A   Overcast
9:58 AM 49.8 °F 47.8 °F 93% 30.01 in 10.0 mi SSE 2.3 mph - 0.01 in   Mostly Cloudy
10:02 AM 50.0 °F 48.2 °F 94% 30.00 in 10.0 mi SSE 2.3 mph - N/A   Light Drizzle
10:13 AM 50.0 °F 48.2 °F 94% 29.99 in 10.0 mi SSE 3.5 mph - N/A   Overcast
10:18 AM 50.0 °F 48.2 °F 94% 29.99 in 10.0 mi South 5.8 mph - N/A   Light Drizzle
10:55 AM 50.0 °F 46.4 °F 87% 29.98 in 10.0 mi SSE 6.9 mph - N/A   Overcast
10:57 AM 50.0 °F 46.4 °F 87% 29.98 in 10.0 mi SSE 5.8 mph - N/A   Light Drizzle
10:58 AM 49.8 °F 47.3 °F 91% 30.00 in 10.0 mi SSE 5.8 mph - 0.04 in   Light Drizzle
11:06 AM 50.0 °F 46.4 °F 87% 29.97 in 10.0 mi SE 6.9 mph - N/A   Overcast
11:36 AM 50.0 °F 48.2 °F 94% 29.97 in 2.5 mi SE 3.5 mph - N/A   Overcast
11:46 AM 50.0 °F 48.2 °F 94% 29.97 in 3.0 mi Variable 3.5 mph - N/A   Overcast
11:56 AM 50.0 °F 48.2 °F 94% 29.96 in 3.0 mi ENE 5.8 mph - N/A   Overcast
11:58 AM 49.6 °F 48.0 °F 94% 29.98 in 3.0 mi NE 6.9 mph - 0.03 in   Overcast
12:00 PM 50.0 °F 48.2 °F 94% 29.96 in 3.0 mi NE 6.9 mph - N/A   Overcast
12:03 PM 50.0 °F 48.2 °F 94% 29.96 in 2.5 mi NE 5.8 mph - N/A   Overcast
12:08 PM 50.0 °F 48.2 °F 94% 29.95 in 4.0 mi NE 4.6 mph - N/A   Overcast
12:28 PM 50.0 °F 48.2 °F 94% 29.95 in 3.0 mi East 6.9 mph - N/A   Overcast
12:38 PM 50.0 °F 48.2 °F 94% 29.94 in 3.0 mi ENE 4.6 mph - N/A   Overcast
12:43 PM 50.0 °F 48.2 °F 94% 29.94 in 3.0 mi East 2.3 mph - N/A   Overcast
12:52 PM 50.0 °F 48.2 °F 94% 29.94 in 3.0 mi East 3.5 mph - N/A   Light Drizzle
12:58 PM 49.6 °F 48.2 °F 95% 29.96 in 3.0 mi ENE 3.5 mph - 0.01 in   Light Drizzle
12:59 PM 50.0 °F 48.2 °F 94% 29.94 in 3.0 mi East 3.5 mph - N/A   Overcast
1:01 PM 50.0 °F 48.2 °F 94% 29.93 in 2.5 mi ENE 4.6 mph - N/A   Overcast
1:08 PM 50.0 °F 48.2 °F 94% 29.93 in 2.5 mi ENE 3.5 mph - N/A   Light Drizzle
1:13 PM 50.0 °F 48.2 °F 94% 29.92 in 2.5 mi ENE 4.6 mph - N/A   Light Drizzle
1:23 PM 50.0 °F 48.2 °F 94% 29.92 in 2.5 mi NE 5.8 mph - N/A   Light Drizzle
1:28 PM 50.0 °F 48.2 °F 94% 29.92 in 2.5 mi ENE 4.6 mph - N/A   Light Drizzle
1:33 PM 50.0 °F 48.2 °F 94% 29.92 in 3.0 mi ENE 4.6 mph - N/A   Light Drizzle
1:38 PM 50.0 °F 48.2 °F 94% 29.92 in 3.0 mi ENE 4.6 mph - N/A   Light Drizzle
1:48 PM 50.0 °F 48.2 °F 94% 29.91 in 2.5 mi NE 4.6 mph - N/A   Light Drizzle
1:53 PM 50.0 °F 48.2 °F 94% 29.91 in 2.0 mi NE 4.6 mph - N/A Rain Light Rain
1:58 PM 49.8 °F 48.7 °F 96% 29.93 in 2.0 mi NE 4.6 mph - 0.03 in   Drizzle
2:03 PM 50.0 °F 48.2 °F 94% 29.90 in 2.5 mi NNE 3.5 mph - N/A   Light Drizzle
2:28 PM 50.0 °F 48.2 °F 94% 29.89 in 3.0 mi ENE 3.5 mph - N/A   Light Drizzle
2:34 PM 50.0 °F 48.2 °F 94% 29.89 in 4.0 mi Variable 2.3 mph - N/A   Overcast
2:49 PM 50.0 °F 48.2 °F 94% 29.88 in 3.0 mi ENE 2.3 mph - N/A   Light Drizzle
2:54 PM 50.0 °F 48.2 °F 94% 29.87 in 2.5 mi ENE 2.3 mph - N/A   Light Drizzle
2:58 PM 50.4 °F 48.9 °F 95% 29.88 in 2.5 mi Calm Calm - 0.01 in   Light Drizzle
3:08 PM 50.0 °F 50.0 °F 100% 29.87 in 2.0 mi ESE 1.2 mph - N/A Rain Light Rain
3:18 PM 50.0 °F 50.0 °F 100% 29.86 in 2.0 mi ESE 2.3 mph - N/A Rain Rain
3:28 PM 50.0 °F 50.0 °F 100% 29.86 in 3.0 mi ESE 4.6 mph - N/A Rain Light Rain
3:44 PM 50.0 °F 50.0 °F 100% 29.85 in 5.0 mi SE 2.3 mph - N/A   Overcast
3:50 PM 50.0 °F 50.0 °F 100% 29.85 in 7.0 mi ESE 3.5 mph - N/A Rain Light Rain
3:55 PM 50.0 °F 50.0 °F 100% 29.84 in 7.0 mi ESE 3.5 mph - N/A Rain Light Rain
3:58 PM 50.9 °F 50.0 °F 97% 29.86 in 6.0 mi SE 3.5 mph - 0.06 in Rain Light Rain
4:13 PM 51.8 °F 50.0 °F 94% 29.85 in 10.0 mi South 3.5 mph - N/A Rain Light Rain
4:23 PM 51.8 °F 50.0 °F 94% 29.86 in 3.0 mi WSW 2.3 mph - N/A Rain Rain
4:28 PM 51.8 °F 50.0 °F 94% 29.83 in 1.8 mi ENE 3.5 mph - N/A Rain Heavy Rain
4:33 PM 50.0 °F 50.0 °F 100% 29.83 in 1.8 mi ENE 1.2 mph - N/A Rain Rain
4:38 PM 51.8 °F 50.0 °F 94% 29.83 in 2.0 mi SE 2.3 mph - N/A Rain Light Rain
4:43 PM 50.0 °F 50.0 °F 100% 29.83 in 4.0 mi ESE 2.3 mph - N/A Rain Light Rain
4:48 PM 50.0 °F 50.0 °F 100% 29.82 in 9.0 mi East 3.5 mph - N/A Rain Light Rain
4:58 PM 51.1 °F 50.5 °F 98% 29.83 in 7.0 mi ESE 2.3 mph - 0.14 in Rain Light Rain
5:35 PM 51.8 °F 51.8 °F 100% 29.79 in 10.0 mi SE 4.6 mph - N/A   Overcast
5:50 PM 51.8 °F 51.8 °F 100% 29.80 in 6.0 mi South 2.3 mph - N/A Rain Light Rain
5:55 PM 51.8 °F 51.8 °F 100% 29.79 in 2.0 mi South 1.2 mph - N/A Rain Heavy Rain
5:58 PM 51.8 °F 51.3 °F 98% 29.81 in 1.8 mi SW 1.2 mph - 0.04 in Rain Rain
6:03 PM 51.8 °F 51.8 °F 100% 29.79 in 2.0 mi Calm Calm - N/A Rain Light Rain
6:08 PM 51.8 °F 51.8 °F 100% 29.78 in 2.5 mi East 1.2 mph - N/A Rain Light Rain
6:13 PM 51.8 °F 51.8 °F 100% 29.78 in 3.0 mi ESE 2.3 mph - N/A Rain Light Rain
6:23 PM 51.8 °F 51.8 °F 100% 29.78 in 7.0 mi SE 2.3 mph - N/A   Light Drizzle
6:33 PM 51.8 °F 51.8 °F 100% 29.77 in 5.0 mi ESE 3.5 mph - N/A Rain Light Rain
6:38 PM 51.8 °F 51.8 °F 100% 29.77 in 7.0 mi ESE 5.8 mph - N/A   Light Drizzle
6:39 PM 51.8 °F 51.8 °F 100% 29.77 in 8.0 mi ESE 5.8 mph - N/A   Overcast
6:41 PM 51.8 °F 51.8 °F 100% 29.77 in 9.0 mi SE 5.8 mph - N/A Rain Light Rain
6:42 PM 51.8 °F 51.8 °F 100% 29.78 in 9.0 mi SE 5.8 mph - N/A   Overcast
6:43 PM 51.8 °F 51.8 °F 100% 29.78 in 9.0 mi SSE 5.8 mph - N/A Rain Light Rain
6:48 PM 51.8 °F 51.8 °F 100% 29.78 in 5.0 mi SSE 5.8 mph - N/A Rain Light Rain
6:58 PM 52.3 °F 52.2 °F 99% 29.80 in 9.0 mi SSE 6.9 mph - 0.04 in Rain Light Rain
7:08 PM 53.6 °F 51.8 °F 94% 29.77 in 10.0 mi SE 9.2 mph - N/A Rain Light Rain
7:38 PM 53.6 °F 53.6 °F 100% 29.77 in 5.0 mi SSE 11.5 mph - N/A Rain Light Rain
7:47 PM 53.6 °F 53.6 °F 100% 29.77 in 10.0 mi SSE 16.1 mph 20.7 mph N/A   Overcast
7:58 PM 55.0 °F 54.7 °F 99% 29.80 in 10.0 mi South 17.3 mph 23.0 mph 0.08 in   Overcast
7:59 PM 55.4 °F 55.4 °F 100% 29.78 in 10.0 mi South 17.3 mph 23.0 mph N/A Rain Light Rain
8:14 PM 55.4 °F 55.4 °F 100% 29.79 in 10.0 mi South 16.1 mph 25.3 mph N/A Rain Light Rain
8:19 PM 55.4 °F 55.4 °F 100% 29.79 in 10.0 mi South 17.3 mph - N/A Rain Light Rain
8:29 PM 55.4 °F 55.4 °F 100% 29.79 in 10.0 mi South 15.0 mph - N/A Rain Light Rain
8:50 PM 57.2 °F 55.4 °F 94% 29.79 in 10.0 mi SSE 16.1 mph - N/A   Overcast
8:55 PM 57.2 °F 55.4 °F 94% 29.78 in 10.0 mi South 16.1 mph - N/A   Overcast
8:58 PM 56.5 °F 55.0 °F 95% 29.79 in 10.0 mi SSE 16.1 mph - 0.02 in   Overcast
9:08 PM 57.2 °F 55.4 °F 94% 29.79 in 10.0 mi SSE 12.7 mph - N/A   Overcast
9:18 PM 57.2 °F 55.4 °F 94% 29.79 in 9.0 mi South 16.1 mph - N/A   Overcast
9:33 PM 57.2 °F 55.4 °F 94% 29.79 in 9.0 mi SSE 13.8 mph - N/A   Overcast
9:43 PM 57.2 °F 55.4 °F 94% 29.80 in 8.0 mi SSE 11.5 mph 19.6 mph N/A   Overcast
9:58 PM 57.0 °F 56.1 °F 97% 29.81 in 7.0 mi South 11.5 mph 19.6 mph N/A   Overcast
10:38 PM 57.2 °F 57.2 °F 100% 29.82 in 10.0 mi South 10.4 mph - N/A   Overcast
10:43 PM 57.2 °F 57.2 °F 100% 29.82 in 10.0 mi South 10.4 mph - N/A   Overcast
10:58 PM 57.4 °F 56.7 °F 97% 29.84 in 7.0 mi SSE 12.7 mph - N/A   Overcast
11:04 PM 57.2 °F 57.2 °F 100% 29.83 in 8.0 mi SSE 13.8 mph - N/A   Light Drizzle
11:10 PM 57.2 °F 57.2 °F 100% 29.83 in 9.0 mi SSE 11.5 mph - N/A   Light Drizzle
11:14 PM 57.2 °F 57.2 °F 100% 29.83 in 9.0 mi SSE 11.5 mph - N/A   Overcast
11:19 PM 57.2 °F 57.2 °F 100% 29.83 in 9.0 mi SSE 12.7 mph - N/A   Overcast
11:39 PM 57.2 °F 57.2 °F 100% 29.84 in 10.0 mi SSE 13.8 mph - N/A   Overcast
11:48 PM 57.2 °F 57.2 °F 100% 29.84 in 9.0 mi South 12.7 mph - N/A Rain Light Rain
11:51 PM 57.2 °F 57.2 °F 100% 29.85 in 8.0 mi South 11.5 mph - N/A   Overcast
11:58 PM 57.9 °F 57.0 °F 97% 29.86 in 8.0 mi South 11.5 mph - 0.01 in   Overcast